Norfolk, VA

10:54 AM EST on November 21, 2017 (GMT -0500)
Norfolk International

Weather History for KORF - April, 2013

Change the Weather History Date:

Friday, April 12, 2013

  Actual Average Record
Temperature  
Mean Temperature 75 °F 57 °F  
Max Temperature 81 °F 67 °F 92 °F (1930)
Min Temperature 69 °F 48 °F 24 °F (1880)
Degree Days  
Heating Degree Days 0 9  
Month to date heating degree days 99 120  
Since 1 July heating degree days 3086 3181  
Cooling Degree Days 10 1  
Month to date cooling degree days 43 12  
Year to date cooling degree days 43 19  
Growing Degree Days 25 (Base 50)    
Moisture  
Dew Point 66 °F    
Average Humidity 76    
Maximum Humidity 90    
Minimum Humidity 62    
Precipitation  
Precipitation 0.22 in 0.12 in 2.26 in (1959)
Month to date precipitation 1.14 1.38  
Year to date precipitation 11.20 11.58  
Snow  
Snow 0.00 in 0.00 in 0.00 in (2002)
Month to date snowfall 0.0 0.0  
Since 1 July snowfall 1.8 5.8  
Snow Depth 0.00 in    
Sea Level Pressure  
Sea Level Pressure 29.72 in    
Wind  
Wind Speed 16 mph (SSW)    
Max Wind Speed 28 mph    
Max Gust Speed 35 mph    
Visibility 10 miles    
Events Rain    
T = Trace of Precipitation, MM = Missing Value Source: NWS Daily Summary

Daily Weather History Graph

Daily Weather History Graph

Search for Another Location

Airport or City:

Trip Planner

Search our weather history database for the weather conditions in past years. The results will help you decide how hot, cold, wet, or windy it might be!

Date:

Astronomy

Apr. 12, 2013 Rise Set
Actual Time 6:34 AM EDT 7:37 PM EDT
Civil Twilight 6:07 AM EDT 8:03 PM EDT
Nautical Twilight 5:36 AM EDT 8:35 PM EDT
Astronomical Twilight 5:03 AM EDT 9:08 PM EDT
Moon 7:46 AM EDT (4/12) 10:01 PM EDT (4/12)
Length of Visible Light 13h 55m
Length of Day
13h 02m
Waxing Crescent, 5% of the Moon is Illuminated
Apr 12
Waxing Crescent
Apr 18
First Quarter
Apr 25
Full
May 2
Last Quarter
May 9
New

Hourly Weather History & Observations

Time (EDT) Temp. Heat Index Dew Point Humidity Pressure Visibility Wind Dir Wind Speed Gust Speed Precip Events Conditions
12:51 AM 72.0 °F - 63.0 °F 73% 29.82 in 10.0 mi SSW 18.4 mph 24.2 mph N/A   Clear
1:51 AM 71.1 °F - 64.0 °F 78% 29.82 in 10.0 mi SSW 17.3 mph 24.2 mph N/A   Clear
2:51 AM 70.0 °F - 64.0 °F 81% 29.81 in 10.0 mi SSW 17.3 mph - N/A   Clear
3:51 AM 69.1 °F - 64.0 °F 84% 29.78 in 10.0 mi SSW 18.4 mph 26.5 mph N/A   Partly Cloudy
4:23 AM 69.8 °F - 64.4 °F 83% 29.78 in 10.0 mi SSW 18.4 mph 23.0 mph N/A   Mostly Cloudy
4:51 AM 70.0 °F - 64.0 °F 81% 29.78 in 10.0 mi SSW 16.1 mph 27.6 mph N/A   Mostly Cloudy
5:39 AM 69.8 °F - 64.4 °F 83% 29.77 in 10.0 mi South 16.1 mph 27.6 mph N/A   Mostly Cloudy
5:51 AM 70.0 °F - 64.0 °F 81% 29.76 in 10.0 mi South 18.4 mph 24.2 mph N/A   Mostly Cloudy
6:25 AM 71.6 °F - 64.4 °F 78% 29.76 in 10.0 mi South 18.4 mph 26.5 mph N/A   Mostly Cloudy
6:51 AM 71.1 °F - 64.0 °F 78% 29.76 in 10.0 mi South 18.4 mph 26.5 mph N/A   Mostly Cloudy
7:51 AM 71.1 °F - 64.0 °F 78% 29.77 in 10.0 mi SSW 20.7 mph 29.9 mph N/A   Mostly Cloudy
7:58 AM 71.6 °F - 64.4 °F 78% 29.77 in 10.0 mi SSW 17.3 mph 27.6 mph N/A   Mostly Cloudy
8:51 AM 69.1 °F - 64.9 °F 87% 29.79 in 7.0 mi SSW 19.6 mph 27.6 mph 0.01 in Rain Light Rain
9:51 AM 69.1 °F - 66.0 °F 90% 29.77 in 9.0 mi South 11.5 mph - 0.04 in Rain Light Rain
10:07 AM 69.8 °F - 66.2 °F 88% 29.78 in 10.0 mi South 18.4 mph - 0.00 in   Overcast
10:51 AM 69.1 °F - 66.0 °F 90% 29.78 in 8.0 mi South 18.4 mph 27.6 mph 0.05 in Rain Light Rain
11:51 AM 71.1 °F - 66.0 °F 84% 29.73 in 10.0 mi South 19.6 mph 26.5 mph 0.02 in   Partly Cloudy
12:44 PM 75.2 °F - 66.2 °F 73% 29.72 in 10.0 mi SSW 20.7 mph 33.4 mph N/A   Mostly Cloudy
12:51 PM 75.9 °F - 66.9 °F 74% 29.71 in 10.0 mi South 19.6 mph 32.2 mph N/A   Mostly Cloudy
1:20 PM 77.0 °F - 66.2 °F 69% 29.70 in 10.0 mi SSW 21.9 mph 29.9 mph N/A   Mostly Cloudy
1:51 PM 77.0 °F - 66.9 °F 71% 29.69 in 10.0 mi SSW 18.4 mph - N/A   Mostly Cloudy
2:51 PM 80.1 °F 82.1 °F 66.0 °F 62% 29.66 in 10.0 mi SSW 16.1 mph 23.0 mph N/A   Mostly Cloudy
3:51 PM 73.9 °F - 66.9 °F 79% 29.66 in 2.5 mi SSW 16.1 mph 21.9 mph 0.05 in Rain Light Rain
4:05 PM 73.4 °F - 68.0 °F 83% 29.63 in 5.0 mi SSW 11.5 mph - 0.04 in Rain Light Rain
4:51 PM 73.9 °F - 69.1 °F 85% 29.64 in 10.0 mi South 12.7 mph - 0.05 in   Scattered Clouds
5:51 PM 73.9 °F - 68.0 °F 82% 29.62 in 10.0 mi South 13.8 mph 24.2 mph N/A   Clear
6:51 PM 73.9 °F - 66.0 °F 76% 29.61 in 10.0 mi South 11.5 mph 20.7 mph N/A   Clear
7:51 PM 73.9 °F - 66.0 °F 76% 29.61 in 10.0 mi South 11.5 mph 20.7 mph N/A   Mostly Cloudy
8:51 PM 72.0 °F - 66.0 °F 81% 29.61 in 10.0 mi South 11.5 mph - N/A   Clear
9:51 PM 71.1 °F - 66.0 °F 84% 29.62 in 10.0 mi SSW 19.6 mph 24.2 mph N/A   Clear
10:51 PM 70.0 °F - 64.9 °F 84% 29.63 in 10.0 mi SSW 18.4 mph 23.0 mph N/A   Clear
11:51 PM 71.1 °F - 66.0 °F 84% 29.65 in 10.0 mi SW 18.4 mph 26.5 mph N/A   Mostly Cloudy